Theta_e
333 334 319 319 319 320 320 321 320 313 313 316 317 317 316 313 313 312 311 308 306 307 312 314 319 317 315 312 325 338 340 342 344 340 343 341 340 343 346 344 339 347 340
326 331 324 319 320 320 317 319 317 313 315 317 317 319 319 317 314 314 314 313 307 309 310 324 324 320 317 314 315 335 340 341 341 340 341 341 340 342 346 341 344 343 337
327 330 328 321 318 316 316 317 315 316 317 318 320 323 323 322 318 316 318 315 312 309 326 322 325 328 322 320 310 331 340 340 341 340 340 342 342 341 345 338 345 336 335
327 331 332 332 318 315 314 316 316 316 317 318 320 323 326 326 322 320 322 321 316 312 325 326 328 325 327 324 316 326 339 340 341 341 341 341 342 339 343 337 337 334 334
328 328 331 326 318 315 316 315 315 316 317 318 319 321 323 323 324 325 325 324 323 316 325 326 325 325 327 328 327 318 336 340 341 341 341 342 342 340 341 336 330 333 334
324 324 325 324 321 316 316 316 317 318 319 320 319 319 319 320 323 325 325 326 325 322 324 324 323 326 327 327 329 319 330 339 341 341 341 342 342 340 339 333 334 335 335
323 323 323 324 321 317 315 317 320 317 317 317 316 317 318 321 324 323 322 324 326 326 324 320 320 322 328 328 327 324 326 335 340 342 341 341 341 341 339 332 332 330 328
323 324 326 326 322 319 315 316 316 315 314 314 318 320 321 320 320 320 320 323 325 327 324 323 311 319 325 329 326 327 323 334 339 343 341 341 342 341 339 334 334 331 327
323 323 323 323 324 320 320 319 317 317 319 320 320 320 321 321 321 321 321 323 325 326 325 317 310 313 322 329 328 327 322 331 339 339 340 340 343 342 340 336 336 332 330
322 321 322 320 319 321 323 325 324 322 320 321 321 319 318 318 319 321 321 322 325 325 322 321 317 311 320 327 329 326 323 329 337 340 339 339 340 340 340 337 333 331 329
322 321 321 320 321 323 325 325 324 326 325 321 321 320 319 322 325 325 326 325 324 324 321 323 321 314 317 324 328 327 322 333 336 339 338 335 332 335 337 334 332 329 330
322 322 320 320 324 325 325 325 326 326 325 322 319 319 319 323 324 325 325 325 324 324 320 322 321 315 312 329 329 327 327 334 336 339 337 331 336 338 336 334 332 332 333
323 322 319 322 326 325 325 326 325 325 323 324 324 324 322 318 322 324 324 325 323 324 324 323 324 319 323 328 331 331 329 334 335 337 337 334 337 339 338 333 331 329 329
322 321 325 327 328 328 326 326 325 326 324 324 324 324 321 323 323 323 322 324 324 325 325 326 326 321 324 328 332 331 328 334 335 337 337 334 336 338 334 330 329 329 331
323 323 327 328 329 328 327 326 327 325 324 326 324 324 322 323 322 320 323 322 323 324 325 325 328 324 327 331 332 332 329 333 333 337 337 337 338 338 334 331 329 331 333
322 326 327 328 329 328 327 327 327 325 325 327 325 323 322 323 320 320 322 323 323 322 325 325 327 327 327 328 333 331 330 334 331 336 337 338 338 337 336 330 327 328 331
322 327 327 327 326 328 327 328 326 326 326 326 325 323 325 324 322 321 321 323 321 323 325 325 326 329 327 330 332 330 331 334 331 335 338 338 338 337 334 329 328 331 333
324 326 327 326 326 328 328 328 328 326 324 323 322 319 318 322 322 323 320 322 324 324 325 326 327 328 329 330 330 330 332 330 332 337 337 336 337 335 332 332 328 327 330
324 326 326 327 327 328 329 330 329 326 326 325 323 321 320 321 323 323 323 320 320 322 325 327 327 327 330 329 330 330 332 329 334 338 335 335 335 331 332 331 327 329 328
324 327 327 327 328 326 328 329 330 327 325 324 323 322 322 322 323 324 323 323 321 322 323 326 326 327 330 329 329 331 332 330 336 338 338 336 334 333 331 328 327 326 328
323 327 328 327 328 326 328 329 329 329 329 327 326 325 325 324 324 326 323 324 322 324 324 327 327 327 329 330 330 331 329 332 336 338 337 334 331 328 326 328 324 326 329
324 326 327 327 327 326 328 329 330 327 328 328 328 326 324 324 324 324 324 325 326 323 325 327 328 329 331 331 331 330 335 335 336 336 336 333 329 331 329 326 327 328 328
323 326 327 327 327 325 328 329 330 331 328 327 327 328 326 323 324 324 325 326 324 326 325 325 327 330 330 328 330 332 332 333 334 334 333 333 329 327 326 329 328 328 329
323 326 326 326 327 329 324 328 330 330 329 329 326 328 328 325 325 325 325 326 326 325 326 328 327 330 328 329 329 332 332 332 332 331 329 327 327 329 330 330 328 328 330
323 325 326 327 327 330 329 328 329 330 330 328 327 326 328 326 326 325 325 326 326 327 328 327 327 328 329 330 331 331 330 331 331 330 331 331 331 331 329 330 330 330 327
322 324 327 328 326 329 329 328 330 330 331 330 328 325 327 327 326 325 325 325 325 325 327 326 328 328 329 328 330 329 330 330 331 330 330 331 331 332 331 331 330 329 328
Wind_Speed
3 7 4 4 6 7 9 12 15 17 16 15 15 15 14 13 14 15 16 15 15 14 13 12 11 11 14 16 17 18 22 23 19 21 19 18 10 9 10 10 12 16 14
2 6 7 7 8 10 13 14 16 17 17 18 19 19 17 15 16 17 17 17 16 15 14 12 12 12 13 15 16 16 20 23 26 25 22 19 13 10 13 13 13 14 13
2 6 10 8 8 12 14 16 17 17 18 20 21 21 20 21 20 18 17 18 17 16 14 14 12 14 13 15 16 15 17 23 26 27 26 18 17 14 15 18 14 9 13
3 5 7 13 12 15 15 16 18 19 20 23 23 21 21 22 25 22 18 16 18 17 15 14 13 13 13 14 16 14 15 19 25 27 27 24 19 19 18 19 18 13 15
4 6 8 13 16 15 15 17 20 21 23 24 24 24 23 24 24 24 23 19 19 18 15 15 14 13 14 14 16 15 14 16 20 25 30 27 23 21 21 21 20 17 15
6 7 12 17 18 18 19 21 21 22 23 24 25 26 26 27 26 25 25 24 20 18 17 16 16 14 14 15 17 17 13 14 16 21 25 25 26 24 25 24 23 19 16
8 8 8 17 19 18 21 23 22 24 26 27 28 27 27 27 26 26 26 26 24 21 19 19 17 17 17 17 17 18 15 13 14 16 21 34 26 27 29 29 28 26 21
6 6 6 13 16 16 18 20 23 25 26 27 28 30 30 31 32 33 30 27 25 23 20 20 20 18 19 19 19 18 18 13 13 14 16 21 27 29 32 32 31 27 22
4 4 6 8 12 17 17 19 21 23 26 28 30 33 34 33 32 32 27 25 25 24 21 23 21 20 20 17 19 19 18 14 14 14 16 22 27 25 28 32 30 26 22
6 5 8 11 12 13 12 18 26 22 24 28 29 30 32 28 24 23 23 24 24 22 20 18 17 21 20 19 19 20 18 15 14 13 16 15 23 24 30 28 30 28 24
8 9 11 11 11 11 12 14 19 18 22 20 17 19 20 13 13 17 15 21 23 22 22 19 17 20 21 22 18 19 17 13 14 15 13 18 18 18 28 29 29 28 26
9 9 11 11 11 10 10 12 14 16 20 17 14 14 14 13 13 14 16 16 22 23 23 21 17 19 25 14 16 19 15 13 17 16 14 17 19 26 31 32 31 28 26
6 7 9 11 10 11 10 12 12 14 20 15 15 10 13 13 9 14 14 15 17 21 20 19 16 16 17 15 17 16 15 15 17 17 13 18 24 21 33 33 30 29 24
6 7 8 9 9 10 10 10 11 14 14 11 11 10 11 7 11 11 13 13 18 19 18 20 18 13 16 18 16 19 16 16 18 18 16 18 22 25 34 31 33 31 26
5 6 7 8 8 10 10 9 13 13 9 9 10 11 9 11 13 9 9 14 17 20 22 19 14 17 16 18 20 21 18 16 19 18 18 22 23 29 31 33 27 28 25
5 5 6 6 7 7 10 14 14 12 10 9 10 9 10 9 9 9 8 12 18 23 21 20 16 12 19 19 18 18 19 18 20 18 19 25 27 24 26 38 39 33 28
5 5 5 6 7 8 12 13 14 12 12 10 10 10 10 12 9 6 6 8 13 20 21 18 18 15 17 18 18 19 15 17 18 20 23 26 29 23 30 38 35 34 32
4 5 5 5 6 8 10 11 13 11 12 11 10 13 13 13 11 7 6 8 10 17 17 17 16 16 18 19 22 18 15 20 18 23 27 28 29 23 30 32 34 32 30
4 4 3 5 5 8 9 9 11 13 10 11 11 11 14 13 11 9 7 8 10 13 17 16 19 18 20 20 19 17 17 18 19 26 27 31 31 33 28 25 31 28 32
5 5 2 3 5 9 10 10 11 11 9 8 9 8 7 12 11 10 9 10 12 13 15 18 21 20 19 19 19 15 14 16 18 26 30 32 34 29 28 36 32 28 29
6 5 3 3 5 7 8 12 11 9 6 8 10 11 8 10 11 10 9 11 13 13 14 17 20 19 18 18 17 13 14 15 19 30 31 33 28 33 32 33 35 30 27
7 6 3 2 4 5 6 9 8 7 2 7 10 13 4 3 10 11 12 10 10 11 13 16 17 18 16 20 14 18 15 17 22 30 29 35 33 26 32 33 28 25 26
8 6 4 1 1 4 6 6 8 7 6 6 9 8 9 2 7 10 13 14 14 10 10 15 13 10 12 15 17 12 13 8 26 28 27 32 35 33 28 27 28 28 25
9 8 5 2 2 3 6 6 7 8 5 4 6 10 9 5 8 10 13 14 14 13 13 12 11 11 14 16 20 15 11 25 11 19 28 34 34 28 28 26 25 25 24
10 9 6 3 3 2 5 6 6 7 12 3 1 9 11 10 6 8 16 16 15 11 12 15 13 14 17 16 14 16 19 19 21 28 28 30 31 27 25 23 24 23 25
10 10 7 5 4 2 3 5 6 9 10 9 3 3 9 10 7 7 13 17 17 16 15 17 15 17 17 18 16 21 27 22 21 27 36 35 31 28 23 18 27 26 23
Wind_Direction
157 214 292 307 304 308 303 303 308 311 308 307 301 301 303 312 308 304 303 296 288 279 282 286 281 259 234 225 231 229 223 223 219 210 217 213 209 201 193 167 148 159 153
147 226 274 301 301 305 306 297 299 301 304 301 297 293 296 298 299 299 294 288 282 279 274 274 281 266 243 230 227 232 225 219 218 216 215 219 217 203 189 156 154 171 163
148 208 270 265 291 300 299 293 293 291 294 292 290 287 291 293 298 300 294 284 278 273 266 262 249 262 251 236 227 231 224 220 218 217 217 214 215 204 188 162 168 177 164
228 211 231 268 295 307 298 283 280 282 283 283 285 284 283 288 295 295 298 288 277 268 264 258 257 251 253 237 232 228 226 220 219 221 218 216 212 210 194 173 166 186 166
240 262 251 268 298 293 273 270 276 278 277 280 282 281 282 283 284 284 289 284 281 266 257 254 250 250 249 232 235 227 226 222 218 219 222 216 208 198 193 172 165 178 169
280 273 278 282 292 280 273 275 277 278 279 279 278 278 280 281 280 279 278 273 270 263 247 246 245 236 233 237 232 227 227 226 217 219 216 210 208 202 176 167 166 164 168
280 276 289 281 288 275 268 265 267 275 276 278 279 278 277 278 276 278 277 272 259 258 245 241 237 232 236 229 228 230 222 225 215 219 218 223 196 194 191 181 176 161 159
271 272 290 287 294 290 275 273 277 278 278 279 280 280 278 277 278 278 274 266 256 249 243 240 237 236 235 232 222 225 221 218 212 216 213 209 197 197 195 190 183 170 154
253 282 292 292 289 307 303 295 284 280 278 278 279 279 278 276 273 272 268 257 254 244 238 244 239 230 236 234 224 219 217 212 203 209 208 209 196 198 194 195 189 166 167
282 296 291 301 298 288 288 295 292 289 278 282 283 285 283 278 275 270 266 252 246 240 235 234 235 223 228 230 226 217 214 208 198 195 191 196 199 211 197 188 172 166 174
281 294 303 296 288 285 291 288 293 311 301 300 294 286 287 289 271 263 257 243 240 226 222 226 230 219 222 227 226 215 211 206 197 187 201 198 209 216 186 173 168 170 175
282 287 298 291 287 295 298 292 299 300 292 296 294 286 283 276 264 250 245 244 228 220 223 224 229 221 221 223 233 215 206 207 192 192 210 188 197 190 184 177 173 170 173
277 298 293 286 290 299 288 291 300 283 289 294 304 301 296 293 263 259 234 245 234 220 220 224 228 222 217 213 211 206 201 207 197 191 202 187 183 189 160 167 169 164 164
276 300 298 290 292 291 295 302 289 286 290 301 315 288 284 287 286 266 250 227 225 218 217 204 202 219 204 211 204 186 199 201 198 193 202 188 180 177 174 164 165 162 168
279 289 297 295 294 298 306 299 283 287 304 282 281 274 258 248 256 263 241 220 219 216 215 201 204 202 205 210 195 188 197 194 204 192 199 184 186 187 176 166 167 158 159
266 285 298 305 299 308 307 291 297 297 291 283 278 274 267 270 266 273 247 230 216 210 205 207 191 198 208 198 192 189 185 200 203 193 196 183 190 188 182 171 168 161 161
253 278 299 309 308 315 317 309 300 288 282 269 250 265 273 271 269 272 234 246 209 192 193 190 179 197 183 176 183 181 186 204 193 190 186 178 184 180 174 167 164 165 166
232 267 290 299 307 309 303 311 316 308 298 288 276 258 257 258 260 262 235 202 174 182 178 173 182 183 177 173 181 185 190 206 190 182 177 174 177 174 166 170 154 159 160
225 247 275 295 317 309 305 312 324 321 295 290 282 277 258 252 244 245 227 189 178 177 173 169 177 183 178 177 176 181 195 195 191 183 175 174 171 171 173 156 153 169 172
212 231 265 315 313 317 335 325 328 327 328 317 313 305 288 249 237 230 222 199 183 177 176 173 176 177 175 174 171 178 186 189 188 181 181 176 175 172 171 164 161 169 172
206 218 246 291 305 330 344 342 337 336 5 342 340 333 300 245 224 227 203 183 175 176 171 166 165 177 188 179 172 170 179 177 178 170 174 170 159 153 158 155 160 165 177
203 207 215 286 308 343 348 348 358 1 341 13 9 19 32 185 193 200 175 165 170 172 164 168 169 176 166 165 172 158 147 156 156 172 155 162 164 161 161 156 161 170 174
195 194 182 207 338 17 48 355 2 347 341 347 7 10 33 125 173 176 174 168 167 166 161 162 164 157 160 167 165 163 141 162 130 154 170 161 162 159 160 166 168 174 172
191 182 173 172 83 6 53 355 344 348 342 329 27 28 15 57 148 177 165 173 166 164 178 170 166 163 165 160 167 163 156 150 140 123 141 152 161 163 165 167 170 172 178
183 181 176 168 116 74 39 21 20 357 2 346 36 26 33 80 109 157 171 172 175 180 183 176 171 166 156 162 159 147 151 148 138 137 131 145 156 159 166 166 167 167 152
181 183 180 174 144 140 43 14 21 13 11 15 43 77 65 62 75 127 161 174 180 185 181 168 165 158 153 150 152 154 152 154 144 137 145 142 136 140 147 160 164 166 169